Location: Newark
(48.0000°N, 67.0000°E)
Time: 01:03:37
(UTC+00:00)

Vanguard 2 - Pass Details

Date: 25 February 2020
Orbit: 552 x 2938 km, 32.9° (Epoch: 06 April)

Event Time Altitude Azimuth Distance (km) Brightness Sun altitude
Exits shadow 21:43:07 28° 132° (SE) 3,251 10.6 -43.8°
Drops below altitude 10° 21:51:04 10° 105° (ESE) 5,089 11.9 -42.8°
Sets 21:56:17 0° 97° (E) 6,406 12.6 -42.2°
